Zurück zum Katalog

COSMOS 2251 DEB

AktivLEO
NORAD 35705·DEBRIS·🇷🇺 Russia

Gestartet Jun 16, 1993 von Plesetsk Cosmodrome

Loading…

Nächste Überflüge (nächste 24 Stunden)

TLE

AktuellSource: Space-Track

Epoche: Sep 13, 2026, 11:09 UTC

1 35705U 93036AQA 26256.46477536  .00012503  00000-0  15669-2 0  9994
2 35705  74.2700 324.3542 0019674 194.0496 166.0139 14.82124831899843

Verfolge COSMOS 2251 DEB in Echtzeit mit AllMySat

Download on the App Store